User: anonymous   Login
Location: Unspecified
(0.0000°N, 0.0000°E)
Time: 13:08:32
(UTC+02:00)
Language:

Ariane H10 - Orbit

View from above orbital plane
View from above orbital plane
View from above satellite
View from above satellite

Ground track
Ground track

The orbit data is extracted from the following two-line orbital elements,

1 19622U 88098B   17265.46359286 +.00003479 +00000-0 +68806-3 0  9991
2 19622 003.7358 080.6436 6366706 054.5856 349.5806 03.50927285307794
Epoch (UTC): 22 September 2017 11:07:34
Eccentricity: 0.6366706
inclination: 3.7358°
perigee height: 268 km
apogee height: 23559 km
right ascension of ascending node: 80.6436°
argument of perigee: 54.5856°
revolutions per day: 3.50927285
mean anomaly at epoch: 349.5806°
orbit number at epoch: 30779

The dashed part of the orbit path shows where the satellite is in the earth's shadow,  

DLR